Year,Month,Day,Hour,Minute,Value (Times are PST for temperature in C)
2009,06,04,00,00,18.20
2009,06,04,00,01,18.20
2009,06,04,00,02,18.20
2009,06,04,00,03,18.20
2009,06,04,00,04,18.20
2009,06,04,00,05,18.20
2009,06,04,00,06,18.20
2009,06,04,00,07,18.20
2009,06,04,00,08,18.20
2009,06,04,00,09,18.20
2009,06,04,00,10,18.20
2009,06,04,00,11,18.20
2009,06,04,00,12,18.20
2009,06,04,00,13,18.20
2009,06,04,00,14,18.20
2009,06,04,00,15,18.20
2009,06,04,00,16,18.20
2009,06,04,00,17,18.20
2009,06,04,00,18,18.20
2009,06,04,00,19,18.20
2009,06,04,00,20,18.20
2009,06,04,00,21,18.10
2009,06,04,00,22,18.10
2009,06,04,00,23,18.00
2009,06,04,00,24,17.90
2009,06,04,00,25,17.90
2009,06,04,00,26,17.90
2009,06,04,00,27,17.90
2009,06,04,00,28,17.80
2009,06,04,00,29,17.80
2009,06,04,00,30,17.80
2009,06,04,00,31,17.80
2009,06,04,00,32,17.80
2009,06,04,00,33,17.70
2009,06,04,00,34,17.70
2009,06,04,00,35,17.70
2009,06,04,00,36,17.70
2009,06,04,00,37,17.70
2009,06,04,00,38,17.60
2009,06,04,00,39,17.60
2009,06,04,00,40,17.50
2009,06,04,00,41,17.50
2009,06,04,00,42,17.50
2009,06,04,00,43,17.50
2009,06,04,00,44,17.50
2009,06,04,00,45,17.40
2009,06,04,00,46,17.40
2009,06,04,00,47,17.40
2009,06,04,00,48,17.40
2009,06,04,00,49,17.40
2009,06,04,00,50,17.30
2009,06,04,00,51,17.30
2009,06,04,00,52,17.30
2009,06,04,00,53,17.20
2009,06,04,00,54,17.20
2009,06,04,00,55,17.20
2009,06,04,00,56,17.30
2009,06,04,00,57,17.20
2009,06,04,00,58,17.20
2009,06,04,00,59,17.20
2009,06,04,01,00,17.10
2009,06,04,01,01,17.00
2009,06,04,01,02,17.00
2009,06,04,01,03,16.90
2009,06,04,01,04,16.90
2009,06,04,01,05,16.80
2009,06,04,01,06,16.80
2009,06,04,01,07,16.80
2009,06,04,01,08,16.80
2009,06,04,01,09,16.80
2009,06,04,01,10,16.80
2009,06,04,01,11,16.80
2009,06,04,01,12,16.80
2009,06,04,01,13,16.80
2009,06,04,01,14,16.70
2009,06,04,01,15,16.70
2009,06,04,01,16,16.70
2009,06,04,01,17,16.70
2009,06,04,01,18,16.70
2009,06,04,01,19,16.70
2009,06,04,01,20,16.70
2009,06,04,01,21,16.70
2009,06,04,01,22,16.70
2009,06,04,01,23,16.70
2009,06,04,01,24,16.70
2009,06,04,01,25,16.70
2009,06,04,01,26,16.70
2009,06,04,01,27,16.70
2009,06,04,01,28,16.80
2009,06,04,01,29,16.90
2009,06,04,01,30,16.90
2009,06,04,01,31,17.00
2009,06,04,01,32,17.00
2009,06,04,01,33,17.00
2009,06,04,01,34,17.00
2009,06,04,01,35,17.00
2009,06,04,01,36,16.90
2009,06,04,01,37,16.90
2009,06,04,01,38,16.90
2009,06,04,01,39,16.80
2009,06,04,01,40,16.80
2009,06,04,01,41,16.80
2009,06,04,01,42,16.80
2009,06,04,01,43,16.80
2009,06,04,01,44,16.80
2009,06,04,01,45,16.80
2009,06,04,01,46,16.80
2009,06,04,01,47,16.70
2009,06,04,01,48,16.70
2009,06,04,01,49,16.70
2009,06,04,01,50,16.70
2009,06,04,01,51,16.70
2009,06,04,01,52,16.70
2009,06,04,01,53,16.70
2009,06,04,01,54,16.60
2009,06,04,01,55,16.60
2009,06,04,01,56,16.60
2009,06,04,01,57,16.50
2009,06,04,01,58,16.40
2009,06,04,01,59,16.40
2009,06,04,02,00,16.30
2009,06,04,02,01,16.30
2009,06,04,02,02,16.30
2009,06,04,02,03,16.20
2009,06,04,02,04,16.20
2009,06,04,02,05,16.20
2009,06,04,02,06,16.30
2009,06,04,02,07,16.30
2009,06,04,02,08,16.30
2009,06,04,02,09,16.30
2009,06,04,02,10,16.30
2009,06,04,02,11,16.30
2009,06,04,02,12,16.20
2009,06,04,02,13,16.20
2009,06,04,02,14,16.20
2009,06,04,02,15,16.20
2009,06,04,02,16,16.20
2009,06,04,02,17,16.20
2009,06,04,02,18,16.20
2009,06,04,02,19,16.20
2009,06,04,02,20,16.10
2009,06,04,02,21,16.10
2009,06,04,02,22,16.10
2009,06,04,02,23,16.10
2009,06,04,02,24,16.00
2009,06,04,02,25,15.90
2009,06,04,02,26,15.90
2009,06,04,02,27,15.90
2009,06,04,02,28,15.80
2009,06,04,02,29,15.80
2009,06,04,02,30,15.80
2009,06,04,02,31,15.90
2009,06,04,02,32,15.90
2009,06,04,02,33,15.90
2009,06,04,02,34,15.90
2009,06,04,02,35,15.90
2009,06,04,02,36,15.90
2009,06,04,02,37,15.90
2009,06,04,02,38,15.80
2009,06,04,02,39,15.80
2009,06,04,02,40,15.80
2009,06,04,02,41,15.80
2009,06,04,02,42,15.80
2009,06,04,02,43,15.80
2009,06,04,02,44,15.80
2009,06,04,02,45,15.80
2009,06,04,02,46,15.80
2009,06,04,02,47,15.80
2009,06,04,02,48,15.80
2009,06,04,02,49,15.80
2009,06,04,02,50,15.80
2009,06,04,02,51,15.80
2009,06,04,02,52,15.80
2009,06,04,02,53,15.80
2009,06,04,02,54,15.80
2009,06,04,02,55,15.80
2009,06,04,02,56,15.80
2009,06,04,02,57,15.80
2009,06,04,02,58,15.80
2009,06,04,02,59,15.80
2009,06,04,03,00,15.80
2009,06,04,03,01,15.70
2009,06,04,03,02,15.70
2009,06,04,03,03,15.70
2009,06,04,03,04,15.70
2009,06,04,03,05,15.60
2009,06,04,03,06,15.60
2009,06,04,03,07,15.60
2009,06,04,03,08,15.60
2009,06,04,03,09,15.50
2009,06,04,03,10,15.50
2009,06,04,03,11,15.50
2009,06,04,03,12,15.50
2009,06,04,03,13,15.40
2009,06,04,03,14,15.40
2009,06,04,03,15,15.40
2009,06,04,03,16,15.30
2009,06,04,03,17,15.30
2009,06,04,03,18,15.30
2009,06,04,03,19,15.30
2009,06,04,03,20,15.30
2009,06,04,03,21,15.30
2009,06,04,03,22,15.30
2009,06,04,03,23,15.30
2009,06,04,03,24,15.30
2009,06,04,03,25,15.30
2009,06,04,03,26,15.30
2009,06,04,03,27,15.30
2009,06,04,03,28,15.30
2009,06,04,03,29,15.30
2009,06,04,03,30,15.30
2009,06,04,03,31,15.30
2009,06,04,03,32,15.30
2009,06,04,03,33,15.30
2009,06,04,03,34,15.30
2009,06,04,03,35,15.30
2009,06,04,03,36,15.20
2009,06,04,03,37,15.20
2009,06,04,03,38,15.20
2009,06,04,03,39,15.20
2009,06,04,03,40,15.10
2009,06,04,03,41,15.10
2009,06,04,03,42,15.00
2009,06,04,03,43,15.00
2009,06,04,03,44,15.00
2009,06,04,03,45,15.00
2009,06,04,03,46,15.00
2009,06,04,03,47,14.90
2009,06,04,03,48,14.90
2009,06,04,03,49,14.80
2009,06,04,03,50,14.80
2009,06,04,03,51,14.80
2009,06,04,03,52,14.80
2009,06,04,03,53,14.80
2009,06,04,03,54,14.70
2009,06,04,03,55,14.70
2009,06,04,03,56,14.70
2009,06,04,03,57,14.60
2009,06,04,03,58,14.60
2009,06,04,03,59,14.70
2009,06,04,04,00,14.70
2009,06,04,04,01,14.80
2009,06,04,04,02,14.80
2009,06,04,04,03,14.90
2009,06,04,04,04,14.90
2009,06,04,04,05,14.90
2009,06,04,04,06,14.90
2009,06,04,04,07,14.80
2009,06,04,04,08,14.80
2009,06,04,04,09,14.80
2009,06,04,04,10,14.80
2009,06,04,04,11,14.80
2009,06,04,04,12,14.70
2009,06,04,04,13,14.70
2009,06,04,04,14,14.70
2009,06,04,04,15,14.70
2009,06,04,04,16,14.70
2009,06,04,04,17,14.60
2009,06,04,04,18,14.60
2009,06,04,04,19,14.60
2009,06,04,04,20,14.60
2009,06,04,04,21,14.60
2009,06,04,04,22,14.60
2009,06,04,04,23,14.60
2009,06,04,04,24,14.60
2009,06,04,04,25,14.70
2009,06,04,04,26,14.80
2009,06,04,04,27,14.90
2009,06,04,04,28,15.00
2009,06,04,04,29,15.10
2009,06,04,04,30,15.20
2009,06,04,04,31,15.30
2009,06,04,04,32,15.30
2009,06,04,04,33,15.40
2009,06,04,04,34,15.50
2009,06,04,04,35,15.50
2009,06,04,04,36,15.60
2009,06,04,04,37,15.70
2009,06,04,04,38,15.70
2009,06,04,04,39,15.60
2009,06,04,04,40,15.50
2009,06,04,04,41,15.40
2009,06,04,04,42,15.30
2009,06,04,04,43,15.30
2009,06,04,04,44,15.20
2009,06,04,04,45,15.20
2009,06,04,04,46,15.10
2009,06,04,04,47,15.00
2009,06,04,04,48,15.00
2009,06,04,04,49,15.00
2009,06,04,04,50,14.90
2009,06,04,04,51,14.90
2009,06,04,04,52,14.80
2009,06,04,04,53,14.80
2009,06,04,04,54,14.80
2009,06,04,04,55,14.70
2009,06,04,04,56,14.70
2009,06,04,04,57,14.70
2009,06,04,04,58,14.60
2009,06,04,04,59,14.60
2009,06,04,05,00,14.60
2009,06,04,05,01,14.60
2009,06,04,05,02,14.50
2009,06,04,05,03,14.50
2009,06,04,05,04,14.50
2009,06,04,05,05,14.40
2009,06,04,05,06,14.40
2009,06,04,05,07,14.40
2009,06,04,05,08,14.30
2009,06,04,05,09,14.20
2009,06,04,05,10,14.20
2009,06,04,05,11,14.10
2009,06,04,05,12,14.00
2009,06,04,05,13,13.90
2009,06,04,05,14,13.90
2009,06,04,05,15,13.90
2009,06,04,05,16,13.90
2009,06,04,05,17,14.00
2009,06,04,05,18,14.20
2009,06,04,05,19,14.30
2009,06,04,05,20,14.50
2009,06,04,05,21,14.70
2009,06,04,05,22,14.90
2009,06,04,05,23,15.00
2009,06,04,05,24,15.10
2009,06,04,05,25,15.10
2009,06,04,05,26,15.10
2009,06,04,05,27,15.10
2009,06,04,05,28,15.20
2009,06,04,05,29,15.30
2009,06,04,05,30,15.30
2009,06,04,05,31,15.40
2009,06,04,05,32,15.50
2009,06,04,05,33,15.50
2009,06,04,05,34,15.60
2009,06,04,05,35,15.80
2009,06,04,05,36,15.80
2009,06,04,05,37,15.80
2009,06,04,05,38,15.90
2009,06,04,05,39,15.90
2009,06,04,05,40,16.10
2009,06,04,05,41,16.10
2009,06,04,05,42,16.10
2009,06,04,05,43,16.10
2009,06,04,05,44,16.10
2009,06,04,05,45,16.10
2009,06,04,05,46,16.20
2009,06,04,05,47,16.20
2009,06,04,05,48,16.20
2009,06,04,05,49,16.20
2009,06,04,05,50,16.20
2009,06,04,05,51,16.20
2009,06,04,05,52,16.30
2009,06,04,05,53,16.30
2009,06,04,05,54,16.30
2009,06,04,05,55,16.20
2009,06,04,05,56,16.10
2009,06,04,05,57,15.90
2009,06,04,05,58,15.80
2009,06,04,05,59,15.80
2009,06,04,06,00,15.70
2009,06,04,06,01,15.70
2009,06,04,06,02,15.70
2009,06,04,06,03,15.70
2009,06,04,06,04,15.70
2009,06,04,06,05,15.80
2009,06,04,06,06,15.80
2009,06,04,06,07,15.90
2009,06,04,06,08,16.00
2009,06,04,06,09,16.10
2009,06,04,06,10,16.10
2009,06,04,06,11,16.20
2009,06,04,06,12,16.20
2009,06,04,06,13,16.30
2009,06,04,06,14,16.40
2009,06,04,06,15,16.40
2009,06,04,06,16,16.40
2009,06,04,06,17,16.50
2009,06,04,06,18,16.50
2009,06,04,06,19,16.40
2009,06,04,06,20,16.40
2009,06,04,06,21,16.60
2009,06,04,06,22,16.60
2009,06,04,06,23,16.70
2009,06,04,06,24,16.70
2009,06,04,06,25,16.70
2009,06,04,06,26,16.80
2009,06,04,06,27,16.80
2009,06,04,06,28,16.90
2009,06,04,06,29,16.90
2009,06,04,06,30,16.90
2009,06,04,06,31,16.90
2009,06,04,06,32,16.90
2009,06,04,06,33,16.90
2009,06,04,06,34,16.90
2009,06,04,06,35,16.80
2009,06,04,06,36,16.80
2009,06,04,06,37,16.70
2009,06,04,06,38,16.70
2009,06,04,06,39,16.70
2009,06,04,06,40,16.70
2009,06,04,06,41,16.70
2009,06,04,06,42,16.60
2009,06,04,06,43,16.60
2009,06,04,06,44,16.60
2009,06,04,06,45,16.60
2009,06,04,06,46,16.50
2009,06,04,06,47,16.40
2009,06,04,06,48,16.40
2009,06,04,06,49,16.50
2009,06,04,06,50,16.60
2009,06,04,06,51,16.60
2009,06,04,06,52,16.70
2009,06,04,06,53,16.70
2009,06,04,06,54,16.80
2009,06,04,06,55,16.90
2009,06,04,06,56,17.00
2009,06,04,06,57,17.20
2009,06,04,06,58,17.30
2009,06,04,06,59,17.40
2009,06,04,07,00,17.50
2009,06,04,07,01,17.60
2009,06,04,07,02,17.70
2009,06,04,07,03,17.80
2009,06,04,07,04,17.90
2009,06,04,07,05,17.90
2009,06,04,07,06,18.00
2009,06,04,07,07,18.10
2009,06,04,07,08,18.10
2009,06,04,07,09,18.20
2009,06,04,07,10,18.20
2009,06,04,07,11,18.20
2009,06,04,07,12,18.20
2009,06,04,07,13,18.30
2009,06,04,07,14,18.30
2009,06,04,07,15,18.40
2009,06,04,07,16,18.50
2009,06,04,07,17,18.60
2009,06,04,07,18,18.70
2009,06,04,07,19,18.80
2009,06,04,07,20,18.90
2009,06,04,07,21,19.10
2009,06,04,07,22,19.20
2009,06,04,07,23,19.30
2009,06,04,07,24,19.40
2009,06,04,07,25,19.60
2009,06,04,07,26,19.70
2009,06,04,07,27,19.80
2009,06,04,07,28,19.90
2009,06,04,07,29,20.00
2009,06,04,07,30,20.10
2009,06,04,07,31,20.20
2009,06,04,07,32,20.30
2009,06,04,07,33,20.40
2009,06,04,07,34,20.50
2009,06,04,07,35,20.50
2009,06,04,07,36,20.60
2009,06,04,07,37,20.70
2009,06,04,07,38,20.80
2009,06,04,07,39,20.80
2009,06,04,07,40,20.90
2009,06,04,07,41,21.00
2009,06,04,07,42,21.00
2009,06,04,07,43,21.10
2009,06,04,07,44,21.10
2009,06,04,07,45,21.20
2009,06,04,07,46,21.30
2009,06,04,07,47,21.30
2009,06,04,07,48,21.40
2009,06,04,07,49,21.50
2009,06,04,07,50,21.60
2009,06,04,07,51,21.60
2009,06,04,07,52,21.70
2009,06,04,07,53,21.70
2009,06,04,07,54,21.80
2009,06,04,07,55,21.80
2009,06,04,07,56,21.90
2009,06,04,07,57,22.00
2009,06,04,07,58,22.00
2009,06,04,07,59,22.10
2009,06,04,08,00,22.10
2009,06,04,08,01,22.10
2009,06,04,08,02,22.20
2009,06,04,08,03,22.20
2009,06,04,08,04,22.20
2009,06,04,08,05,22.30
2009,06,04,08,06,22.30
2009,06,04,08,07,22.40
2009,06,04,08,08,22.40
2009,06,04,08,09,22.40
2009,06,04,08,10,22.50
2009,06,04,08,11,22.50
2009,06,04,08,12,22.60
2009,06,04,08,13,22.70
2009,06,04,08,14,22.70
2009,06,04,08,15,22.80
2009,06,04,08,16,22.90
2009,06,04,08,17,22.90
2009,06,04,08,18,22.90
2009,06,04,08,19,22.90
2009,06,04,08,20,23.00
2009,06,04,08,21,23.10
2009,06,04,08,22,23.10
2009,06,04,08,23,23.10
2009,06,04,08,24,23.20
2009,06,04,08,25,23.20
2009,06,04,08,26,23.20
2009,06,04,08,27,23.30
2009,06,04,08,28,23.30
2009,06,04,08,29,23.30
2009,06,04,08,30,23.40
2009,06,04,08,31,23.40
2009,06,04,08,32,23.40
2009,06,04,08,33,23.50
2009,06,04,08,34,23.60
2009,06,04,08,35,23.60
2009,06,04,08,36,23.70
2009,06,04,08,37,23.70
2009,06,04,08,38,23.70
2009,06,04,08,39,23.70
2009,06,04,08,40,23.70
2009,06,04,08,41,23.70
2009,06,04,08,42,23.80
2009,06,04,08,43,23.80
2009,06,04,08,44,23.80
2009,06,04,08,45,23.90
2009,06,04,08,46,24.00
2009,06,04,08,47,24.10
2009,06,04,08,48,24.00
2009,06,04,08,49,23.90
2009,06,04,08,50,23.90
2009,06,04,08,51,23.90
2009,06,04,08,52,23.90
2009,06,04,08,53,23.90
2009,06,04,08,54,23.90
2009,06,04,08,55,23.90
2009,06,04,08,56,24.00
2009,06,04,08,57,24.10
2009,06,04,08,58,24.10
2009,06,04,08,59,24.10
2009,06,04,09,00,24.10
2009,06,04,09,01,24.10
2009,06,04,09,02,24.00
2009,06,04,09,03,23.90
2009,06,04,09,04,23.90
2009,06,04,09,05,23.90
2009,06,04,09,06,23.80
2009,06,04,09,07,23.80
2009,06,04,09,08,23.80
2009,06,04,09,09,23.90
2009,06,04,09,10,23.90
2009,06,04,09,11,23.90
2009,06,04,09,12,24.10
2009,06,04,09,13,24.10
2009,06,04,09,14,24.10
2009,06,04,09,15,24.20
2009,06,04,09,16,24.20
2009,06,04,09,17,24.30
2009,06,04,09,18,24.30
2009,06,04,09,19,24.40
2009,06,04,09,20,24.40
2009,06,04,09,21,24.40
2009,06,04,09,22,24.50
2009,06,04,09,23,24.50
2009,06,04,09,24,24.60
2009,06,04,09,25,24.70
2009,06,04,09,26,24.80
2009,06,04,09,27,24.90
2009,06,04,09,28,24.90
2009,06,04,09,29,25.00
2009,06,04,09,30,25.00
2009,06,04,09,31,25.00
2009,06,04,09,32,25.00
2009,06,04,09,33,24.90
2009,06,04,09,34,24.90
2009,06,04,09,35,24.90
2009,06,04,09,36,25.00
2009,06,04,09,37,25.00
2009,06,04,09,38,25.10
2009,06,04,09,39,25.20
2009,06,04,09,40,25.30
2009,06,04,09,41,25.40
2009,06,04,09,42,25.40
2009,06,04,09,43,25.50
2009,06,04,09,44,25.50
2009,06,04,09,45,25.60
2009,06,04,09,46,25.60
2009,06,04,09,47,25.70
2009,06,04,09,48,25.60
2009,06,04,09,49,25.60
2009,06,04,09,50,25.60
2009,06,04,09,51,25.70
2009,06,04,09,52,25.70
2009,06,04,09,53,25.70
2009,06,04,09,54,25.80
2009,06,04,09,55,25.80
2009,06,04,09,56,25.90
2009,06,04,09,57,25.90
2009,06,04,09,58,25.90
2009,06,04,09,59,25.90
2009,06,04,10,00,25.90
2009,06,04,10,01,26.00
2009,06,04,10,02,26.00
2009,06,04,10,03,26.10
2009,06,04,10,04,26.20
2009,06,04,10,05,26.20
2009,06,04,10,06,26.30
2009,06,04,10,07,26.40
2009,06,04,10,08,26.40
2009,06,04,10,09,26.40
2009,06,04,10,10,26.50
2009,06,04,10,11,26.60
2009,06,04,10,12,26.60
2009,06,04,10,13,26.60
2009,06,04,10,14,26.70
2009,06,04,10,15,26.70
2009,06,04,10,16,26.80
2009,06,04,10,17,26.80
2009,06,04,10,18,26.70
2009,06,04,10,19,26.70
2009,06,04,10,20,26.70
2009,06,04,10,21,26.70
2009,06,04,10,22,26.80
2009,06,04,10,23,26.80
2009,06,04,10,24,26.80
2009,06,04,10,25,26.80
2009,06,04,10,26,26.80
2009,06,04,10,27,26.80
2009,06,04,10,28,26.80
2009,06,04,10,29,26.80
2009,06,04,10,30,26.80
2009,06,04,10,31,26.80
2009,06,04,10,32,26.70
2009,06,04,10,33,26.60
2009,06,04,10,34,26.60
2009,06,04,10,35,26.60
2009,06,04,10,36,26.40
2009,06,04,10,37,26.40
2009,06,04,10,38,26.30
2009,06,04,10,39,26.30
2009,06,04,10,40,26.30
2009,06,04,10,41,26.40
2009,06,04,10,42,26.40
2009,06,04,10,43,26.40
2009,06,04,10,44,26.40
2009,06,04,10,45,26.50
2009,06,04,10,46,26.60
2009,06,04,10,47,26.60
2009,06,04,10,48,26.70
2009,06,04,10,49,26.80
2009,06,04,10,50,26.80
2009,06,04,10,51,26.80
2009,06,04,10,52,26.70
2009,06,04,10,53,26.40
2009,06,04,10,54,26.20
2009,06,04,10,55,26.00
2009,06,04,10,56,25.70
2009,06,04,10,57,25.10
2009,06,04,10,58,24.50
2009,06,04,10,59,24.10
2009,06,04,11,00,23.80
2009,06,04,11,01,23.60
2009,06,04,11,02,23.40
2009,06,04,11,03,23.10
2009,06,04,11,04,22.90
2009,06,04,11,05,22.70
2009,06,04,11,06,22.60
2009,06,04,11,07,22.60
2009,06,04,11,08,22.70
2009,06,04,11,09,22.70
2009,06,04,11,10,22.80
2009,06,04,11,11,23.00
2009,06,04,11,12,23.30
2009,06,04,11,13,23.30
2009,06,04,11,14,23.30
2009,06,04,11,15,23.30
2009,06,04,11,16,23.10
2009,06,04,11,17,23.00
2009,06,04,11,18,22.90
2009,06,04,11,19,23.00
2009,06,04,11,20,23.10
2009,06,04,11,21,23.10
2009,06,04,11,22,23.20
2009,06,04,11,23,23.30
2009,06,04,11,24,23.30
2009,06,04,11,25,23.40
2009,06,04,11,26,23.40
2009,06,04,11,27,23.40
2009,06,04,11,28,23.40
2009,06,04,11,29,23.40
2009,06,04,11,30,23.40
2009,06,04,11,31,23.40
2009,06,04,11,32,23.40
2009,06,04,11,33,23.40
2009,06,04,11,34,23.20
2009,06,04,11,35,23.10
2009,06,04,11,36,22.90
2009,06,04,11,37,22.60
2009,06,04,11,38,22.50
2009,06,04,11,39,22.40
2009,06,04,11,40,22.40
2009,06,04,11,41,22.40
2009,06,04,11,42,22.50
2009,06,04,11,43,22.40
2009,06,04,11,44,22.30
2009,06,04,11,45,22.20
2009,06,04,11,46,22.10
2009,06,04,11,47,22.00
2009,06,04,11,48,21.90
2009,06,04,11,49,22.00
2009,06,04,11,50,22.10
2009,06,04,11,51,22.10
2009,06,04,11,52,22.20
2009,06,04,11,53,22.20
2009,06,04,11,54,22.20
2009,06,04,11,55,22.20
2009,06,04,11,56,22.10
2009,06,04,11,57,22.00
2009,06,04,11,58,22.00
2009,06,04,11,59,21.90
2009,06,04,12,00,21.90
2009,06,04,12,01,22.00
2009,06,04,12,02,22.00
2009,06,04,12,03,22.00
2009,06,04,12,04,22.00
2009,06,04,12,05,22.10
2009,06,04,12,06,22.20
2009,06,04,12,07,22.30
2009,06,04,12,08,22.40
2009,06,04,12,09,22.50
2009,06,04,12,10,22.50
2009,06,04,12,11,22.50
2009,06,04,12,12,22.60
2009,06,04,12,13,22.70
2009,06,04,12,14,22.90
2009,06,04,12,15,23.00
2009,06,04,12,16,23.10
2009,06,04,12,17,23.20
2009,06,04,12,18,23.10
2009,06,04,12,19,23.10
2009,06,04,12,20,23.20
2009,06,04,12,21,23.30
2009,06,04,12,22,23.30
2009,06,04,12,23,23.40
2009,06,04,12,24,23.40
2009,06,04,12,25,23.40
2009,06,04,12,26,23.40
2009,06,04,12,27,23.30
2009,06,04,12,28,23.40
2009,06,04,12,29,23.40
2009,06,04,12,30,23.40
2009,06,04,12,31,23.60
2009,06,04,12,32,23.70
2009,06,04,12,33,23.70
2009,06,04,12,34,23.70
2009,06,04,12,35,23.80
2009,06,04,12,36,23.80
2009,06,04,12,37,23.80
2009,06,04,12,38,23.70
2009,06,04,12,39,23.50
2009,06,04,12,40,23.40
2009,06,04,12,41,23.40
2009,06,04,12,42,23.40
2009,06,04,12,43,23.50
2009,06,04,12,44,23.40
2009,06,04,12,45,23.50
2009,06,04,12,46,23.60
2009,06,04,12,47,23.60
2009,06,04,12,48,23.70
2009,06,04,12,49,23.70
2009,06,04,12,50,23.80
2009,06,04,12,51,23.90
2009,06,04,12,52,24.10
2009,06,04,12,53,24.10
2009,06,04,12,54,24.20
2009,06,04,12,55,24.20
2009,06,04,12,56,24.10
2009,06,04,12,57,24.10
2009,06,04,12,58,24.10
2009,06,04,12,59,24.10
2009,06,04,13,00,24.20
2009,06,04,13,01,24.40
2009,06,04,13,02,24.40
2009,06,04,13,03,24.50
2009,06,04,13,04,24.60
2009,06,04,13,05,24.70
2009,06,04,13,06,24.60
2009,06,04,13,07,24.60
2009,06,04,13,08,24.60
2009,06,04,13,09,24.60
2009,06,04,13,10,24.60
2009,06,04,13,11,24.50
2009,06,04,13,12,24.60
2009,06,04,13,13,24.60
2009,06,04,13,14,24.80
2009,06,04,13,15,24.80
2009,06,04,13,16,24.80
2009,06,04,13,17,24.80
2009,06,04,13,18,24.70
2009,06,04,13,19,24.70
2009,06,04,13,20,24.80
2009,06,04,13,21,24.80
2009,06,04,13,22,24.90
2009,06,04,13,23,25.00
2009,06,04,13,24,25.20
2009,06,04,13,25,25.40
2009,06,04,13,26,25.60
2009,06,04,13,27,25.70
2009,06,04,13,28,25.90
2009,06,04,13,29,26.10
2009,06,04,13,30,26.30
2009,06,04,13,31,26.40
2009,06,04,13,32,26.30
2009,06,04,13,33,26.10
2009,06,04,13,34,26.00
2009,06,04,13,35,26.00
2009,06,04,13,36,26.10
2009,06,04,13,37,26.10
2009,06,04,13,38,26.10
2009,06,04,13,39,26.20
2009,06,04,13,40,26.40
2009,06,04,13,41,26.40
2009,06,04,13,42,26.60
2009,06,04,13,43,26.60
2009,06,04,13,44,26.60
2009,06,04,13,45,26.70
2009,06,04,13,46,26.80
2009,06,04,13,47,27.00
2009,06,04,13,48,27.30
2009,06,04,13,49,27.40
2009,06,04,13,50,27.60
2009,06,04,13,51,27.90
2009,06,04,13,52,28.20
2009,06,04,13,53,28.60
2009,06,04,13,54,28.90
2009,06,04,13,55,28.90
2009,06,04,13,56,28.80
2009,06,04,13,57,28.40
2009,06,04,13,58,27.80
2009,06,04,13,59,27.40
2009,06,04,14,00,27.20
2009,06,04,14,01,27.00
2009,06,04,14,02,26.90
2009,06,04,14,03,26.90
2009,06,04,14,04,27.00
2009,06,04,14,05,27.10
2009,06,04,14,06,27.20
2009,06,04,14,07,27.10
2009,06,04,14,08,26.80
2009,06,04,14,09,26.60
2009,06,04,14,10,26.50
2009,06,04,14,11,26.20
2009,06,04,14,12,26.00
2009,06,04,14,13,25.90
2009,06,04,14,14,25.90
2009,06,04,14,15,25.90
2009,06,04,14,16,26.00
2009,06,04,14,17,26.00
2009,06,04,14,18,26.00
2009,06,04,14,19,25.90
2009,06,04,14,20,25.90
2009,06,04,14,21,26.00
2009,06,04,14,22,25.90
2009,06,04,14,23,25.90
2009,06,04,14,24,25.90
2009,06,04,14,25,26.10
2009,06,04,14,26,26.20
2009,06,04,14,27,26.30
2009,06,04,14,28,26.50
2009,06,04,14,29,26.60
2009,06,04,14,30,26.70
2009,06,04,14,31,26.80
2009,06,04,14,32,26.90
2009,06,04,14,33,26.80
2009,06,04,14,34,26.70
2009,06,04,14,35,26.60
2009,06,04,14,36,26.60
2009,06,04,14,37,26.60
2009,06,04,14,38,26.60
2009,06,04,14,39,26.60
2009,06,04,14,40,26.60
2009,06,04,14,41,26.60
2009,06,04,14,42,26.70
2009,06,04,14,43,26.80
2009,06,04,14,44,26.80
2009,06,04,14,45,26.90
2009,06,04,14,46,27.00
2009,06,04,14,47,27.10
2009,06,04,14,48,27.10
2009,06,04,14,49,27.10
2009,06,04,14,50,27.30
2009,06,04,14,51,27.30
2009,06,04,14,52,27.30
2009,06,04,14,53,27.20
2009,06,04,14,54,27.10
2009,06,04,14,55,26.80
2009,06,04,14,56,26.70
2009,06,04,14,57,26.70
2009,06,04,14,58,26.60
2009,06,04,14,59,26.60
2009,06,04,15,00,26.60
2009,06,04,15,01,26.60
2009,06,04,15,02,26.60
2009,06,04,15,03,26.80
2009,06,04,15,04,27.10
2009,06,04,15,05,27.40
2009,06,04,15,06,27.80
2009,06,04,15,07,28.00
2009,06,04,15,08,28.10
2009,06,04,15,09,28.20
2009,06,04,15,10,28.30
2009,06,04,15,11,28.30
2009,06,04,15,12,28.40
2009,06,04,15,13,28.60
2009,06,04,15,14,28.80
2009,06,04,15,15,28.90
2009,06,04,15,16,29.10
2009,06,04,15,17,29.40
2009,06,04,15,18,29.60
2009,06,04,15,19,29.80
2009,06,04,15,20,30.00
2009,06,04,15,21,30.20
2009,06,04,15,22,30.30
2009,06,04,15,23,30.50
2009,06,04,15,24,30.70
2009,06,04,15,25,30.80
2009,06,04,15,26,30.90
2009,06,04,15,27,30.90
2009,06,04,15,28,31.00
2009,06,04,15,29,31.10
2009,06,04,15,30,31.20
2009,06,04,15,31,31.30
2009,06,04,15,32,31.40
2009,06,04,15,33,31.40
2009,06,04,15,34,31.50
2009,06,04,15,35,31.60
2009,06,04,15,36,31.60
2009,06,04,15,37,31.60
2009,06,04,15,38,31.60
2009,06,04,15,39,31.70
2009,06,04,15,40,31.70
2009,06,04,15,41,31.60
2009,06,04,15,42,31.60
2009,06,04,15,43,31.60
2009,06,04,15,44,31.60
2009,06,04,15,45,31.60
2009,06,04,15,46,31.60
2009,06,04,15,47,31.80
2009,06,04,15,48,31.90
2009,06,04,15,49,31.90
2009,06,04,15,50,32.10
2009,06,04,15,51,32.10
2009,06,04,15,52,32.20
2009,06,04,15,53,32.20
2009,06,04,15,54,32.20
2009,06,04,15,55,32.20
2009,06,04,15,56,32.20
2009,06,04,15,57,32.30
2009,06,04,15,58,32.30
2009,06,04,15,59,32.30
2009,06,04,16,00,32.30
2009,06,04,16,01,32.30
2009,06,04,16,02,32.30
2009,06,04,16,03,32.30
2009,06,04,16,04,32.40
2009,06,04,16,05,32.40
2009,06,04,16,06,32.30
2009,06,04,16,07,32.20
2009,06,04,16,08,32.20
2009,06,04,16,09,32.10
2009,06,04,16,10,32.10
2009,06,04,16,11,32.00
2009,06,04,16,12,31.90
2009,06,04,16,13,32.00
2009,06,04,16,14,32.10
2009,06,04,16,15,32.10
2009,06,04,16,16,32.10
2009,06,04,16,17,32.20
2009,06,04,16,18,32.20
2009,06,04,16,19,32.30
2009,06,04,16,20,32.40
2009,06,04,16,21,32.40
2009,06,04,16,22,32.50
2009,06,04,16,23,32.50
2009,06,04,16,24,32.40
2009,06,04,16,25,32.30
2009,06,04,16,26,32.30
2009,06,04,16,27,32.40
2009,06,04,16,28,32.40
2009,06,04,16,29,32.60
2009,06,04,16,30,32.60
2009,06,04,16,31,32.60
2009,06,04,16,32,32.60
2009,06,04,16,33,32.60
2009,06,04,16,34,32.60
2009,06,04,16,35,32.60
2009,06,04,16,36,32.60
2009,06,04,16,37,32.50
2009,06,04,16,38,32.50
2009,06,04,16,39,32.50
2009,06,04,16,40,32.40
2009,06,04,16,41,32.40
2009,06,04,16,42,32.40
2009,06,04,16,43,32.40
2009,06,04,16,44,32.40
2009,06,04,16,45,32.30
2009,06,04,16,46,32.20
2009,06,04,16,47,32.20
2009,06,04,16,48,32.10
2009,06,04,16,49,32.10
2009,06,04,16,50,32.00
2009,06,04,16,51,31.90
2009,06,04,16,52,31.80
2009,06,04,16,53,31.70
2009,06,04,16,54,31.60
2009,06,04,16,55,31.50
2009,06,04,16,56,31.40
2009,06,04,16,57,31.40
2009,06,04,16,58,31.40
2009,06,04,16,59,31.40
2009,06,04,17,00,31.30
2009,06,04,17,01,31.30
2009,06,04,17,02,31.30
2009,06,04,17,03,31.20
2009,06,04,17,04,31.20
2009,06,04,17,05,31.20
2009,06,04,17,06,31.20
2009,06,04,17,07,31.30
2009,06,04,17,08,31.30
2009,06,04,17,09,31.30
2009,06,04,17,10,31.40
2009,06,04,17,11,31.40
2009,06,04,17,12,31.40
2009,06,04,17,13,31.40
2009,06,04,17,14,31.40
2009,06,04,17,15,31.40
2009,06,04,17,16,31.40
2009,06,04,17,17,31.40
2009,06,04,17,18,31.40
2009,06,04,17,19,31.30